Time,TemperatureF,DewpointF,PressureIn,WindDirection,WindDirectionDegrees,WindSpeedMPH,WindSpeedGustMPH,Humidity,HourlyPrecipIn,Conditions,Clouds,dailyrainin,SoftwareType,DateUTC
2013-11-04 00:01:00,32.3,20.0,30.41,WNW,294,2.0,2.0,62,0.00,,,0.00,weatherlink.com 1.10,2013-11-04 05:01:00,
2013-11-04 00:16:00,32.0,20.0,30.41,NNW,338,1.0,4.0,62,0.00,,,0.00,weatherlink.com 1.10,2013-11-04 05:16:00,
2013-11-04 00:32:00,31.8,20.0,30.42,WNW,291,1.0,4.0,63,0.00,,,0.00,weatherlink.com 1.10,2013-11-04 05:32:00,
2013-11-04 00:47:00,31.6,21.0,30.42,WNW,290,1.0,2.0,64,0.00,,,0.00,weatherlink.com 1.10,2013-11-04 05:47:00,
2013-11-04 01:02:00,30.9,21.0,30.43,West,274,2.0,2.0,66,0.00,,,0.00,weatherlink.com 1.10,2013-11-04 06:02:00,
2013-11-04 01:17:00,29.8,21.0,30.43,West,274,0.0,0.0,69,0.00,,,0.00,weatherlink.com 1.10,2013-11-04 06:17:00,
2013-11-04 01:32:00,28.5,21.0,30.44,West,274,0.0,0.0,72,0.00,,,0.00,weatherlink.com 1.10,2013-11-04 06:32:00,
2013-11-04 01:47:00,27.7,20.0,30.45,West,263,1.0,3.0,73,0.00,,,0.00,weatherlink.com 1.10,2013-11-04 06:47:00,
2013-11-04 02:02:00,-999.0,-99.9,30.45,North,-999,-999.0,-999.0,-999,0.00,,,0.00,weatherlink.com 1.10,2013-11-04 07:02:00,
2013-11-04 02:17:00,-999.0,-99.9,30.46,North,-999,-999.0,-999.0,-999,0.00,,,0.00,weatherlink.com 1.10,2013-11-04 07:17:00,
2013-11-04 02:32:00,-999.0,-99.9,30.46,North,-999,-999.0,-999.0,-999,0.00,,,0.00,weatherlink.com 1.10,2013-11-04 07:32:00,
2013-11-04 02:47:00,-999.0,-99.9,30.46,North,-999,-999.0,-999.0,-999,0.00,,,0.00,weatherlink.com 1.10,2013-11-04 07:47:00,
2013-11-04 03:02:00,-999.0,-99.9,30.47,North,-999,-999.0,-999.0,-999,0.00,,,0.00,weatherlink.com 1.10,2013-11-04 08:02:00,
2013-11-04 03:17:00,-999.0,-99.9,30.47,North,-999,-999.0,-999.0,-999,0.00,,,0.00,weatherlink.com 1.10,2013-11-04 08:17:00,
2013-11-04 03:32:00,-999.0,-99.9,30.47,North,-999,-999.0,-999.0,-999,0.00,,,0.00,weatherlink.com 1.10,2013-11-04 08:32:00,
2013-11-04 03:47:00,-999.0,-99.9,30.48,North,-999,-999.0,-999.0,-999,0.00,,,0.00,weatherlink.com 1.10,2013-11-04 08:47:00,
2013-11-04 04:02:00,-999.0,-99.9,30.48,North,-999,-999.0,-999.0,-999,0.00,,,0.00,weatherlink.com 1.10,2013-11-04 09:02:00,
2013-11-04 04:18:00,-999.0,-99.9,30.48,North,-999,-999.0,-999.0,-999,0.00,,,0.00,weatherlink.com 1.10,2013-11-04 09:18:00,
2013-11-04 04:33:00,-999.0,-99.9,30.49,North,-999,-999.0,-999.0,-999,0.00,,,0.00,weatherlink.com 1.10,2013-11-04 09:33:00,
2013-11-04 04:48:00,-999.0,-99.9,30.50,North,-999,-999.0,-999.0,-999,0.00,,,0.00,weatherlink.com 1.10,2013-11-04 09:48:00,
2013-11-04 05:03:00,-999.0,-99.9,30.50,North,-999,-999.0,-999.0,-999,0.00,,,0.00,weatherlink.com 1.10,2013-11-04 10:03:00,
2013-11-04 05:18:00,-999.0,-99.9,30.51,North,-999,-999.0,-999.0,-999,0.00,,,0.00,weatherlink.com 1.10,2013-11-04 10:18:00,
2013-11-04 05:33:00,-999.0,-99.9,30.51,North,-999,-999.0,-999.0,-999,0.00,,,0.00,weatherlink.com 1.10,2013-11-04 10:33:00,
2013-11-04 05:48:00,-999.0,-99.9,30.52,North,-999,-999.0,-999.0,-999,0.00,,,0.00,weatherlink.com 1.10,2013-11-04 10:48:00,
2013-11-04 06:03:00,-999.0,-99.9,30.52,North,-999,-999.0,-999.0,-999,0.00,,,0.00,weatherlink.com 1.10,2013-11-04 11:03:00,
2013-11-04 06:18:00,-999.0,-99.9,30.52,North,-999,-999.0,-999.0,-999,0.00,,,0.00,weatherlink.com 1.10,2013-11-04 11:18:00,
2013-11-04 06:33:00,-999.0,-99.9,30.52,North,-999,-999.0,-999.0,-999,0.00,,,0.00,weatherlink.com 1.10,2013-11-04 11:33:00,
2013-11-04 06:48:00,-999.0,-99.9,30.53,North,-999,-999.0,-999.0,-999,0.00,,,0.00,weatherlink.com 1.10,2013-11-04 11:48:00,
2013-11-04 07:03:00,-999.0,-99.9,30.53,North,-999,-999.0,-999.0,-999,0.00,,,0.00,weatherlink.com 1.10,2013-11-04 12:03:00,
2013-11-04 07:18:00,25.6,23.0,30.54,NW,319,0.0,0.0,88,0.00,,,0.00,weatherlink.com 1.10,2013-11-04 12:18:00,
2013-11-04 07:33:00,30.0,24.0,30.55,North,352,0.0,2.0,79,0.00,,,0.00,weatherlink.com 1.10,2013-11-04 12:33:00,
2013-11-04 07:48:00,31.7,24.0,30.55,ENE,62,0.0,2.0,72,0.00,,,0.00,weatherlink.com 1.10,2013-11-04 12:48:00,
2013-11-04 08:03:00,33.9,22.0,30.56,WNW,288,2.0,6.0,63,0.00,,,0.00,weatherlink.com 1.10,2013-11-04 13:03:00,
2013-11-04 08:19:00,35.5,21.0,30.56,NNE,33,4.0,8.0,57,0.00,,,0.00,weatherlink.com 1.10,2013-11-04 13:19:00,
2013-11-04 08:34:00,36.3,21.0,30.56,North,10,4.0,9.0,54,0.00,,,0.00,weatherlink.com 1.10,2013-11-04 13:34:00,
2013-11-04 08:49:00,37.2,21.0,30.56,NNW,343,3.0,8.0,52,0.00,,,0.00,weatherlink.com 1.10,2013-11-04 13:49:00,
2013-11-04 09:04:00,37.4,20.0,30.56,NW,320,3.0,10.0,49,0.00,,,0.00,weatherlink.com 1.10,2013-11-04 14:04:00,
2013-11-04 09:19:00,38.4,20.0,30.57,NNE,23,4.0,9.0,48,0.00,,,0.00,weatherlink.com 1.10,2013-11-04 14:19:00,
2013-11-04 09:34:00,39.1,19.0,30.57,NNE,26,4.0,11.0,45,0.00,,,0.00,weatherlink.com 1.10,2013-11-04 14:34:00,
2013-11-04 09:49:00,39.4,19.0,30.57,NNE,13,4.0,9.0,44,0.00,,,0.00,weatherlink.com 1.10,2013-11-04 14:49:00,
2013-11-04 10:04:00,40.3,20.0,30.58,NW,325,2.0,8.0,44,0.00,,,0.00,weatherlink.com 1.10,2013-11-04 15:04:00,
2013-11-04 10:19:00,40.9,20.0,30.57,North,352,3.0,10.0,43,0.00,,,0.00,weatherlink.com 1.10,2013-11-04 15:19:00,
2013-11-04 10:49:00,41.3,17.0,30.56,NNW,343,5.0,8.0,38,0.00,,,0.00,weatherlink.com 1.10,2013-11-04 15:49:00,
2013-11-04 11:04:00,41.8,19.0,30.55,North,10,3.0,9.0,40,0.00,,,0.00,weatherlink.com 1.10,2013-11-04 16:04:00,
2013-11-04 11:19:00,42.0,19.0,30.55,North,358,4.0,7.0,39,0.00,,,0.00,weatherlink.com 1.10,2013-11-04 16:19:00,
2013-11-04 11:34:00,43.0,21.0,30.54,NNE,24,3.0,6.0,41,0.00,,,0.00,weatherlink.com 1.10,2013-11-04 16:34:00,
2013-11-04 11:49:00,43.2,19.0,30.55,NNE,15,4.0,7.0,38,0.00,,,0.00,weatherlink.com 1.10,2013-11-04 16:49:00,
2013-11-04 12:04:00,43.5,19.0,30.54,NNE,24,2.0,8.0,37,0.00,,,0.00,weatherlink.com 1.10,2013-11-04 17:04:00,
2013-11-04 12:19:00,44.3,19.0,30.54,East,80,4.0,4.0,37,0.00,,,0.00,weatherlink.com 1.10,2013-11-04 17:19:00,
2013-11-04 12:34:00,44.1,18.0,30.54,East,96,2.0,6.0,35,0.00,,,0.00,weatherlink.com 1.10,2013-11-04 17:34:00,
2013-11-04 12:49:00,44.6,18.0,30.53,West,260,0.0,4.0,35,0.00,,,0.00,weatherlink.com 1.10,2013-11-04 17:49:00,
2013-11-04 13:04:00,45.1,17.0,30.53,NNE,33,2.0,5.0,33,0.00,,,0.00,weatherlink.com 1.10,2013-11-04 18:04:00,
2013-11-04 13:19:00,44.7,17.0,30.52,ESE,121,5.0,6.0,33,0.00,,,0.00,weatherlink.com 1.10,2013-11-04 18:19:00,
2013-11-04 13:34:00,44.9,17.0,30.52,NE,53,2.0,6.0,33,0.00,,,0.00,weatherlink.com 1.10,2013-11-04 18:34:00,
2013-11-04 13:49:00,45.1,16.0,30.52,East,98,3.0,7.0,31,0.00,,,0.00,weatherlink.com 1.10,2013-11-04 18:49:00,
2013-11-04 14:04:00,45.1,17.0,30.53,ENE,71,2.0,7.0,32,0.00,,,0.00,weatherlink.com 1.10,2013-11-04 19:04:00,
2013-11-04 14:19:00,45.6,16.0,30.53,NNW,340,3.0,6.0,31,0.00,,,0.00,weatherlink.com 1.10,2013-11-04 19:19:00,
2013-11-04 14:34:00,45.1,16.0,30.53,ENE,63,1.0,3.0,31,0.00,,,0.00,weatherlink.com 1.10,2013-11-04 19:34:00,
2013-11-04 14:49:00,45.0,16.0,30.52,NNE,25,2.0,5.0,31,0.00,,,0.00,weatherlink.com 1.10,2013-11-04 19:49:00,
2013-11-04 15:04:00,44.9,18.0,30.52,ENE,68,3.0,7.0,34,0.00,,,0.00,weatherlink.com 1.10,2013-11-04 20:04:00,
2013-11-04 15:19:00,45.0,19.0,30.53,ENE,66,1.0,4.0,35,0.00,,,0.00,weatherlink.com 1.10,2013-11-04 20:19:00,
2013-11-04 15:34:00,44.3,17.0,30.53,ENE,60,2.0,5.0,33,0.00,,,0.00,weatherlink.com 1.10,2013-11-04 20:34:00,
2013-11-04 15:49:00,44.2,18.0,30.53,ENE,58,2.0,4.0,35,0.00,,,0.00,weatherlink.com 1.10,2013-11-04 20:49:00,
2013-11-04 16:04:00,43.9,18.0,30.54,ENE,66,1.0,4.0,35,0.00,,,0.00,weatherlink.com 1.10,2013-11-04 21:04:00,
2013-11-04 16:19:00,43.6,17.0,30.54,East,85,1.0,2.0,35,0.00,,,0.00,weatherlink.com 1.10,2013-11-04 21:19:00,
2013-11-04 16:34:00,43.1,19.0,30.55,NE,40,0.0,3.0,38,0.00,,,0.00,weatherlink.com 1.10,2013-11-04 21:34:00,
2013-11-04 16:49:00,42.4,18.0,30.55,ENE,70,0.0,2.0,38,0.00,,,0.00,weatherlink.com 1.10,2013-11-04 21:49:00,
2013-11-04 17:04:00,40.8,22.0,30.55,ENE,70,0.0,1.0,47,0.00,,,0.00,weatherlink.com 1.10,2013-11-04 22:04:00,
2013-11-04 17:19:00,38.7,23.0,30.55,NE,39,0.0,1.0,54,0.00,,,0.00,weatherlink.com 1.10,2013-11-04 22:19:00,
2013-11-04 17:34:00,37.7,21.0,30.55,West,259,0.0,1.0,52,0.00,,,0.00,weatherlink.com 1.10,2013-11-04 22:34:00,
2013-11-04 17:50:00,36.8,22.0,30.56,West,259,0.0,1.0,56,0.00,,,0.00,weatherlink.com 1.10,2013-11-04 22:50:00,
2013-11-04 18:05:00,35.5,24.0,30.55,WSW,258,0.0,1.0,62,0.00,,,0.00,weatherlink.com 1.10,2013-11-04 23:05:00,
2013-11-04 18:20:00,34.7,24.0,30.56,West,259,0.0,0.0,64,0.00,,,0.00,weatherlink.com 1.10,2013-11-04 23:20:00,
2013-11-04 18:35:00,34.5,24.0,30.56,NNE,26,0.0,0.0,66,0.00,,,0.00,weatherlink.com 1.10,2013-11-04 23:35:00,
2013-11-04 18:50:00,33.7,23.0,30.57,NNE,26,0.0,0.0,64,0.00,,,0.00,weatherlink.com 1.10,2013-11-04 23:50:00,
2013-11-04 19:05:00,33.1,25.0,30.56,NNE,25,0.0,0.0,71,0.00,,,0.00,weatherlink.com 1.10,2013-11-05 00:05:00,
2013-11-04 19:20:00,32.8,24.0,30.56,West,274,0.0,0.0,71,0.00,,,0.00,weatherlink.com 1.10,2013-11-05 00:20:00,
2013-11-04 19:35:00,32.4,25.0,30.56,West,274,0.0,0.0,74,0.00,,,0.00,weatherlink.com 1.10,2013-11-05 00:35:00,
2013-11-04 19:50:00,32.0,24.0,30.57,West,274,0.0,0.0,72,0.00,,,0.00,weatherlink.com 1.10,2013-11-05 00:50:00,
2013-11-04 20:05:00,31.2,25.0,30.57,West,276,0.0,0.0,77,0.00,,,0.00,weatherlink.com 1.10,2013-11-05 01:05:00,
2013-11-04 20:20:00,30.4,25.0,30.58,West,276,0.0,0.0,79,0.00,,,0.00,weatherlink.com 1.10,2013-11-05 01:20:00,
2013-11-04 20:35:00,30.3,24.0,30.59,West,276,0.0,0.0,78,0.00,,,0.00,weatherlink.com 1.10,2013-11-05 01:35:00,
2013-11-04 20:50:00,30.2,24.0,30.59,West,275,0.0,1.0,79,0.00,,,0.00,weatherlink.com 1.10,2013-11-05 01:50:00,
2013-11-04 21:05:00,30.2,24.0,30.59,West,276,0.0,1.0,78,0.00,,,0.00,weatherlink.com 1.10,2013-11-05 02:05:00,
2013-11-04 21:20:00,30.2,25.0,30.59,West,276,0.0,1.0,81,0.00,,,0.00,weatherlink.com 1.10,2013-11-05 02:20:00,
2013-11-04 21:35:00,30.0,25.0,30.60,West,276,0.0,0.0,80,0.00,,,0.00,weatherlink.com 1.10,2013-11-05 02:35:00,
2013-11-04 21:50:00,30.2,25.0,30.60,West,276,0.0,0.0,81,0.00,,,0.00,weatherlink.com 1.10,2013-11-05 02:50:00,
2013-11-04 22:05:00,29.8,25.0,30.59,West,275,0.0,0.0,83,0.00,,,0.00,weatherlink.com 1.10,2013-11-05 03:05:00,
2013-11-04 22:20:00,29.4,25.0,30.60,West,275,0.0,0.0,84,0.00,,,0.00,weatherlink.com 1.10,2013-11-05 03:20:00,
2013-11-04 22:35:00,29.4,25.0,30.59,West,276,0.0,0.0,84,0.00,,,0.00,weatherlink.com 1.10,2013-11-05 03:35:00,
2013-11-04 22:50:00,29.4,25.0,30.59,West,274,0.0,0.0,83,0.00,,,0.00,weatherlink.com 1.10,2013-11-05 03:50:00,
2013-11-04 23:05:00,29.3,25.0,30.59,West,274,0.0,0.0,84,0.00,,,0.00,weatherlink.com 1.10,2013-11-05 04:05:00,
2013-11-04 23:20:00,29.3,26.0,30.59,West,276,0.0,0.0,86,0.00,,,0.00,weatherlink.com 1.10,2013-11-05 04:20:00,
2013-11-04 23:35:00,29.1,25.0,30.60,West,276,0.0,0.0,84,0.00,,,0.00,weatherlink.com 1.10,2013-11-05 04:35:00,
2013-11-04 23:50:00,29.3,25.0,30.60,West,275,0.0,0.0,84,0.00,,,0.00,weatherlink.com 1.10,2013-11-05 04:50:00,